^^
Station Historical Data
Daily Summary for April 25, 2017 Units:  Metric    English   Both
« Previous Day
Next Day »
Daily Weekly Monthly Yearly Custom
  High: Low: Average:
Temperature: 27.4 °C 18.9 °C 21.2 °C
Dew Point: 10.6 °C 8.4 °C 9.5 °C
Humidity: 54% 31% 48%
Wind Speed: 28.8km/h 0km/h 6km/h
Wind Gust: 38.6km/h - -
Wind- - East
Pressure: 1015.8 hPa 1011.1 hPa -
Precipitation: 0 mm    
Historical Graphs
 
 
Tabular Data for April 25, 2017
Time Temperature Dew Point Pressure Wind Wind Speed Wind Gust Humidity Rainfall Rate (Hourly) solar Conditions
00:00 21.1 °C 10 °C 1015.5 hPa Calm     49% 0 mm 0.0 W/m2
00:10 21.1 °C 10 °C 1015.5 hPa Calm     49% 0 mm 0.0 W/m2
00:15 21.1 °C 10 °C 1015.1 hPa Calm     49% 0 mm 0.0 W/m2
00:20 21.1 °C 10 °C 1015.1 hPa Calm     49% 0 mm 0.0 W/m2
00:26 21.1 °C 10 °C 1015.5 hPa Calm     49% 0 mm 0.0 W/m2
00:31 21.1 °C 10 °C 1015.1 hPa Calm     49% 0 mm 0.0 W/m2
00:36 21.2 °C 10.1 °C 1015.1 hPa Calm     49% 0 mm 0.0 W/m2
00:41 21.2 °C 10.1 °C 1015.1 hPa Calm     49% 0 mm 0.0 W/m2
00:46 21.2 °C 10.1 °C 1015.1 hPa Calm     49% 0 mm 0.0 W/m2
00:51 21.2 °C 10.1 °C 1015.1 hPa Calm     49% 0 mm 0.0 W/m2
00:56 21.2 °C 10.1 °C 1015.1 hPa Calm     49% 0 mm 0.0 W/m2
01:02 21.1 °C 10 °C 1015.1 hPa Calm     49% 0 mm 0.0 W/m2
01:07 21 °C 9.9 °C 1015.1 hPa Calm     49% 0 mm 0.0 W/m2
01:17 20.7 °C 9.6 °C 1015.1 hPa Calm     49% 0 mm 0.0 W/m2
01:22 20.6 °C 9.8 °C 1015.1 hPa Calm     50% 0 mm 0.0 W/m2
01:27 20.5 °C 9.7 °C 1015.1 hPa Calm     50% 0 mm 0.0 W/m2
01:32 20.4 °C 9.6 °C 1015.1 hPa Calm     50% 0 mm 0.0 W/m2
01:37 20.4 °C 9.6 °C 1015.1 hPa Calm     50% 0 mm 0.0 W/m2
01:42 20.4 °C 9.3 °C 1015.1 hPa Calm     49% 0 mm 0.0 W/m2
01:47 20.3 °C 9.2 °C 1015.1 hPa Calm     49% 0 mm 0.0 W/m2
01:53 20.3 °C 9.2 °C 1015.1 hPa Calm     49% 0 mm 0.0 W/m2
01:58 20.5 °C 9.4 °C 1015.1 hPa Calm     49% 0 mm 0.0 W/m2
02:03 20.7 °C 9.6 °C 1015.1 hPa Calm     49% 0 mm 0.0 W/m2
02:13 20.8 °C 9.4 °C 1015.1 hPa Calm     48% 0 mm 0.0 W/m2
02:18 20.8 °C 9.4 °C 1015.1 hPa Calm     48% 0 mm 0.0 W/m2
02:24 20.9 °C 9.5 °C 1015.1 hPa Calm     48% 0 mm 0.0 W/m2
02:29 20.9 °C 9.2 °C 1015.1 hPa Calm     47% 0 mm 0.0 W/m2
02:34 20.8 °C 9.1 °C 1014.8 hPa Calm     47% 0 mm 0.0 W/m2
02:39 20.8 °C 9.4 °C 1015.1 hPa Calm     48% 0 mm 0.0 W/m2
02:49 20.7 °C 9.3 °C 1015.1 hPa Calm     48% 0 mm 0.0 W/m2
02:54 20.6 °C 9.2 °C 1014.8 hPa Calm     48% 0 mm 0.0 W/m2
03:04 20.6 °C 9.2 °C 1014.8 hPa North 6.4 km/h 11.3 km/h 48% 0 mm 0.0 W/m2
03:14 20.8 °C 9.4 °C 1014.8 hPa NNE 7.9 km/h 19.3 km/h 48% 0 mm 0.0 W/m2
03:24 20.8 °C 9.4 °C 1014.8 hPa NNE 14.3 km/h 20.9 km/h 48% 0 mm 0.0 W/m2
03:34 20.8 °C 9.4 °C 1014.8 hPa NNE 9.7 km/h 17.7 km/h 48% 0 mm 0.0 W/m2
03:44 20.8 °C 9.4 °C 1014.4 hPa NNE 14.3 km/h 17.7 km/h 48% 0 mm 0.0 W/m2
03:54 20.6 °C 9.2 °C 1014.4 hPa NNE 13 km/h 16.1 km/h 48% 0 mm 0.0 W/m2
03:59 20.4 °C 9.3 °C 1014.4 hPa North 7.9 km/h 14.5 km/h 49% 0 mm 0.0 W/m2
04:04 20.4 °C 9.3 °C 1014.4 hPa North 3.2 km/h 19.3 km/h 49% 0 mm 0.0 W/m2
04:10 20.3 °C 9.2 °C 1014.4 hPa North 11.1 km/h 19.3 km/h 49% 0 mm 0.0 W/m2
04:35 20 °C 9.3 °C 1014.8 hPa Calm   3.2 km/h 50% 0 mm 0.0 W/m2
04:40 19.9 °C 9.2 °C 1014.8 hPa Calm     50% 0 mm 0.0 W/m2
04:50 19.8 °C 9.4 °C 1014.8 hPa North 6.4 km/h 12.9 km/h 51% 0 mm 0.0 W/m2
05:00 19.7 °C 9.3 °C 1014.8 hPa North 6.4 km/h 11.3 km/h 51% 0 mm 0.0 W/m2
05:05 19.7 °C 9.3 °C 1014.8 hPa Calm     51% 0 mm 0.0 W/m2
05:10 19.6 °C 9.2 °C 1014.8 hPa Calm     51% 0 mm 0.0 W/m2
05:20 19.6 °C 9.2 °C 1014.8 hPa Calm     51% 0 mm 0.0 W/m2
05:25 19.4 °C 9 °C 1014.8 hPa Calm     51% 0 mm 0.0 W/m2
05:31 19.4 °C 9.3 °C 1014.8 hPa Calm     52% 0 mm 0.0 W/m2
05:36 19.4 °C 9.3 °C 1014.8 hPa Calm     52% 0 mm 0.0 W/m2
05:41 19.3 °C 9.2 °C 1014.8 hPa Calm     52% 0 mm 0.0 W/m2
05:46 19.2 °C 9.1 °C 1014.8 hPa Calm     52% 0 mm 0.0 W/m2
05:51 19.2 °C 9.4 °C 1014.8 hPa Calm     53% 0 mm 0.0 W/m2
06:00 19.1 °C 9.3 °C 1014.8 hPa Calm     53% 0 mm 0.0 W/m2
06:28 18.9 °C 9.4 °C 1015.1 hPa Calm     54% 0 mm 16.0 W/m2
06:33 19 °C 9.5 °C 1015.1 hPa Calm     54% 0 mm 21.0 W/m2
06:43 19.1 °C 9.6 °C 1015.1 hPa Calm     54% 0 mm 30.0 W/m2
06:48 19.1 °C 9.6 °C 1015.1 hPa Calm     54% 0 mm 49.0 W/m2
06:53 19.1 °C 9.6 °C 1015.1 hPa Calm     54% 0 mm 65.0 W/m2
07:03 19.4 °C 9.9 °C 1015.5 hPa North 6.4 km/h 16.1 km/h 54% 0 mm 91.0 W/m2
07:19 19.7 °C 9.9 °C 1015.5 hPa NNE 13 km/h 19.3 km/h 53% 0 mm 142.0 W/m2
07:28 19.9 °C 10 °C 1015.5 hPa North 16.3 km/h 22.5 km/h 53% 0 mm 181.0 W/m2
07:33 20 °C 10.1 °C 1015.5 hPa North 16.3 km/h 25.7 km/h 53% 0 mm 197.0 W/m2
07:40 20.1 °C 9.9 °C 1015.5 hPa North 17.7 km/h 27.4 km/h 52% 0 mm 213.0 W/m2
07:43 20.2 °C 10 °C 1015.5 hPa North 14.3 km/h 20.9 km/h 52% 0 mm 229.0 W/m2
07:57 20.3 °C 10.1 °C 1015.5 hPa NE 20.9 km/h 24.1 km/h 52% 0 mm 260.0 W/m2
08:18 21.1 °C 10.6 °C 1015.8 hPa NNW 20.9 km/h 24.1 km/h 51% 0 mm 334.0 W/m2
08:33 21.2 °C 10.4 °C 1015.8 hPa North 14.3 km/h 27.4 km/h 50% 0 mm 380.0 W/m2
08:54 21.7 °C 10.5 °C 1015.8 hPa North 16.3 km/h 27.4 km/h 49% 0 mm 422.0 W/m2
10:03 22.9 °C 10.3 °C 1015.5 hPa NNW 17.7 km/h 30.6 km/h 45% 0 mm 594.0 W/m2
10:59 24.2 °C 10.5 °C 1014.8 hPa NNW 28.8 km/h 32.2 km/h 42% 0 mm 659.0 W/m2
11:40 25.2 °C 9.9 °C 1014.1 hPa NNW 7.9 km/h 29 km/h 38% 0 mm 693.0 W/m2
12:35 26.2 °C 9.1 °C 1012.8 hPa NNW 17.7 km/h 29 km/h 34% 0 mm 684.0 W/m2
13:01 26.6 °C 9 °C 1012.1 hPa NNE 22.7 km/h 37 km/h 33% 0 mm 643.0 W/m2
13:15 27.3 °C 9.2 °C 1012.1 hPa North 16.3 km/h 30.6 km/h 32% 0 mm 626.0 W/m2
13:29 27.2 °C 8.6 °C 1011.7 hPa North 19.5 km/h 38.6 km/h 31% 0 mm 608.0 W/m2
15:21 27.4 °C 8.8 °C 1011.1 hPa NNE 14.3 km/h 25.7 km/h 31% 0 mm 360.0 W/m2
16:07 26.4 °C 8.4 °C 1011.1 hPa North 7.9 km/h 14.5 km/h 32% 0 mm 151.0 W/m2
16:22 26.5 °C 8.5 °C 1011.1 hPa North 16.3 km/h 19.3 km/h 32% 0 mm 167.0 W/m2
16:36 26.6 °C 8.5 °C 1011.1 hPa NNE 19.5 km/h 27.4 km/h 32% 0 mm 76.0 W/m2
16:50 26.3 °C 8.7 °C 1011.4 hPa North 22.7 km/h 24.1 km/h 33% 0 mm 35.0 W/m2
17:06 26.1 °C 8.6 °C 1011.4 hPa North 16.3 km/h 24.1 km/h 33% 0 mm 14.0 W/m2
Canyon Roadhouse, Fishriver Canyon, Namibia
Compliments of Weather Underground - 2 mb